| time (UTC) | temp F | wind direction | speed knots | gust knots | rain 1hr in | rain 24hr in | rain mn in | humidity % | barometer mb |
| 20260503220032 | 36 | 100 | 12.2 | 18.2 | 0.05 | 0.17 | 0.17 | 98 | 997.0 |
| 20260503214528 | 36 | 91 | 13.0 | 18.2 | 0.03 | 0.13 | 0.13 | 98 | 998.2 |
| 20260503213027 | 36 | 94 | 13.0 | 17.4 | 0.03 | 0.12 | 0.12 | 98 | 999.2 |
| 20260503211525 | 36 | 90 | 9.6 | 13.0 | 0.06 | 0.12 | 0.12 | 97 | 999.7 |
| 20260503210023 | 36 | 107 | 7.8 | 10.4 | 0.09 | 0.12 | 0.12 | 97 | 1000.2 |
| 20260503204522 | 36 | 91 | 6.1 | 8.7 | 0.09 | 0.10 | 0.10 | 97 | 1000.7 |
| 20260503203024 | 36 | 111 | 3.5 | 7.8 | 0.09 | 0.09 | 0.09 | 97 | 1001.4 |
| 20260503201518 | 36 | 76 | 3.5 | 7.8 | 0.05 | 0.05 | 0.05 | 96 | 1001.7 |
| 20260503200015 | 36 | 87 | 6.1 | 8.7 | 0.02 | 0.02 | 0.02 | 95 | 1002.9 |
| 20260503194514 | 36 | 101 | 6.1 | 9.6 | 0.00 | 0.00 | 0.00 | 95 | 1003.9 |
| 20260503193010 | 37 | 116 | 4.3 | 7.8 | 0.00 | 0.00 | 0.00 | 94 | 1004.4 |
| 20260503191508 | 37 | 110 | 2.6 | 5.2 | 0.00 | 0.00 | 0.00 | 94 | 1005.4 |
| 20260503190006 | 37 | 110 | 0.0 | 2.6 | 0.00 | 0.00 | 0.00 | 93 | 1006.1 |
| 20260503184508 | 37 | 110 | 2.6 | 6.1 | 0.00 | 0.00 | 0.00 | 93 | 1006.7 |
| 20260503183001 | 38 | 112 | 3.5 | 6.1 | 0.00 | 0.00 | 0.00 | 93 | 1007.0 |
| 20260503181559 | 38 | 123 | 3.5 | 7.0 | 0.00 | 0.00 | 0.00 | 91 | 1007.6 |
| 20260503180058 | 39 | 89 | 1.7 | 7.8 | 0.00 | 0.00 | 0.00 | 90 | 1008.0 |
| 20260503174555 | 40 | 137 | 0.0 | 4.3 | 0.00 | 0.00 | 0.00 | 89 | 1008.2 |
| 20260503173054 | 41 | 145 | 1.7 | 5.2 | 0.00 | 0.00 | 0.00 | 87 | 1008.8 |
| 20260503171610 | 42 | 150 | 2.6 | 4.3 | 0.00 | 0.00 | 0.00 | 85 | 1008.6 |
| 20260503081538 | 29 | 240 | 1.7 | 3.5 | 0.00 | 0.04 | 0.00 | 97 | 1015.5 |
| 20260503071552 | 29 | 239 | 2.6 | 3.5 | 0.00 | 0.17 | 0.00 | 97 | 1015.7 |
| 20260503054530 | 29 | 233 | 2.6 | 4.3 | 0.00 | 0.48 | 0.00 | 97 | 1015.6 |
| 20260503053036 | 29 | 233 | 2.6 | 4.3 | 0.00 | 0.48 | 0.00 | 97 | 1015.7 |
| 20260503051529 | 29 | 222 | 1.7 | 3.5 | 0.00 | 0.48 | 0.00 | 97 | 1015.8 |
| 20260503050024 | 29 | 222 | 1.7 | 3.5 | 0.00 | 0.48 | 0.00 | 97 | 1016.2 |
| 20260503044541 | 29 | 222 | 1.7 | 3.5 | 0.00 | 0.65 | 0.00 | 97 | 1015.9 |
| 20260503043038 | 29 | 221 | 1.7 | 4.3 | 0.00 | 0.65 | 0.00 | 97 | 1016.3 |
| 20260503041519 | 29 | 198 | 1.7 | 2.6 | 0.00 | 0.65 | 0.00 | 97 | 1016.2 |
| 20260503040019 | 29 | 198 | 0.0 | 2.6 | 0.00 | 0.65 | 0.00 | 97 | 1016.2 |
| 20260503034516 | 30 | 197 | 0.9 | 3.5 | 0.00 | 0.88 | 0.00 | 97 | 1016.7 |
| 20260503033015 | 30 | 197 | 0.9 | 3.5 | 0.00 | 0.88 | 0.00 | 97 | 1016.9 |
| 20260503031514 | 30 | 196 | 0.0 | 0.0 | 0.00 | 0.88 | 0.00 | 97 | 1016.9 |
| 20260503030008 | 30 | 196 | 0.0 | 0.9 | 0.00 | 1.12 | 0.88 | 97 | 1017.0 |
| 20260503024504 | 30 | 196 | 1.7 | 3.5 | 0.00 | 1.12 | 0.88 | 97 | 1016.9 |
| 20260503023002 | 30 | 195 | 1.7 | 2.6 | 0.00 | 1.12 | 0.88 | 97 | 1016.5 |
| 20260503021502 | 30 | 195 | 1.7 | 3.5 | 0.00 | 1.12 | 0.88 | 97 | 1016.4 |
| 20260503020002 | 30 | 195 | 0.0 | 3.5 | 0.00 | 1.28 | 0.88 | 96 | 1016.2 |
| 20260503014604 | 31 | 195 | 1.7 | 2.6 | 0.00 | 1.28 | 0.88 | 96 | 1016.2 |
| 20260503013101 | 31 | 194 | 0.0 | 1.7 | 0.00 | 1.28 | 0.88 | 96 | 1016.3 |
| 20260503011622 | 31 | 193 | 0.0 | 1.7 | 0.00 | 1.28 | 0.88 | 96 | 1016.4 |
| 20260503010058 | 31 | 193 | 0.9 | 1.7 | 0.00 | 1.28 | 0.88 | 96 | 1016.6 |
| 20260503004553 | 32 | 193 | 2.6 | 3.5 | 0.00 | 1.43 | 0.88 | 95 | 1016.6 |
| 20260503003053 | 32 | 153 | 0.0 | 1.7 | 0.00 | 1.43 | 0.88 | 96 | 1016.4 |
| 20260503001550 | 32 | 152 | 0.0 | 2.6 | 0.00 | 1.43 | 0.88 | 95 | 1016.2 |
| 20260502234557 | 34 | 152 | 0.0 | 2.6 | 0.00 | 1.60 | 0.88 | 94 | 1016.1 |
| 20260502233039 | 36 | 118 | 0.0 | 1.7 | 0.00 | 1.60 | 0.88 | 94 | 1015.9 |
| 20260502231539 | 37 | 118 | 0.0 | 0.9 | 0.00 | 1.60 | 0.88 | 94 | 1015.8 |
| 20260502230037 | 37 | 118 | 0.0 | 1.7 | 0.00 | 1.60 | 0.88 | 94 | 1015.6 |
| 20260502224535 | 38 | 118 | 0.0 | 0.0 | 0.00 | 1.80 | 0.88 | 93 | 1015.6 |
| 20260502223034 | 39 | 118 | 0.9 | 3.5 | 0.00 | 1.80 | 0.88 | 93 | 1015.4 |
| 20260502221532 | 40 | 119 | 1.7 | 3.5 | 0.00 | 1.80 | 0.88 | 92 | 1015.2 |